Regional Weather Roundup
Issued by NWS

Home | Current Version | Previous Version | Graphics & Text | Print | Product List | Glossary Off
Versions: 1 2 3 4 5 6 7 8 9 10 11 12 13 14 15 16 17 18 19 20 21 22 23 24 25 26 27 28 29 30 31 32 33 34 35 36 37 38 39 40 41 42 43 44 45 46 47 48 49 50

000
ASUS43 KMKX 201800
RWRWI

WISCONSIN REGIONAL WEATHER ROUNDUP
NATIONAL WEATHER SERVICE MILWAUKEE/SULLIVAN WI
100 PM CDT SUN APR 20 2014

NOTE: "FAIR" INDICATES FEW OR NO CLOUDS BELOW 12,000 FEET WITH NO
SIGNIFICANT WEATHER AND/OR OBSTRUCTIONS TO VISIBILITY.

WIZ001-002-006>008-014>016-023>028-201900-
NORTHWEST WISCONSIN

CITY           SKY/WX    TMP DP  RH WIND       PRES   REMARKS
SUPERIOR ARPT  SUNNY     58  38  47 CALM      30.04F
ASHLAND        SUNNY     59  40  49 N6        30.03F
6HR MIN TEMP:  36; 6HR MAX TEMP:  60;

HAYWARD        SUNNY     66  34  30 W6        30.03F
6HR MIN TEMP:  38; 6HR MAX TEMP:  66;

SIREN          SUNNY     64  38  38 CALM      30.04F
RICE LAKE      SUNNY     67  41  38 SE5       30.04F
LADYSMITH      SUNNY     67  49  52 S6        30.05F
EAU CLAIRE     NOT AVBL
MENOMONIE      MOCLDY    63  50  62 S9        30.05S
NEW RICHMOND   SUNNY     67  48  50 SE5       30.03F
OSCEOLA        SUNNY     70  40  33 S5        30.05F
$$

WIZ003>005-009-010-017-018-201900-
NORTH CENTRAL WISCONSIN

CITY           SKY/WX    TMP DP  RH WIND       PRES   REMARKS
WOODRUFF       MOSUNNY   66  46  48 W6        30.03F
RHINELANDER    MOSUNNY   60  47  61 W10       30.05
6HR MIN TEMP:  48; 6HR MAX TEMP:  60;

EAGLE RIVER    MOSUNNY   63  40  43 SW6       30.03F
LAND O LAKES   MOSUNNY   64  38  38 SW6       30.03F
PHILLIPS       SUNNY     65  41  40 SW5       30.03F
TOMAHAWK       CLOUDY    61  48  63 CALM      30.05F
MEDFORD        CLOUDY    59  52  77 SW9       30.06F
MERRILL        CLOUDY    62  51  67 CALM      30.06F
$$

WIZ029-030-035-036-043>047-201900-
CENTRAL WISCONSIN

CITY           SKY/WX    TMP DP  RH WIND       PRES   REMARKS
WAUSAU         CLOUDY    58  49  72 S10       30.06F
6HR MIN TEMP:  49; 6HR MAX TEMP:  60; 6HR PCP:  0.01;

MOSINEE        MOSUNNY   57  52  82 SW12      30.09F
MARSHFIELD     CLOUDY    56  50  80 SW14      30.07F
6HR MIN TEMP:  50; 6HR MAX TEMP:  60; 6HR PCP:  0.06;

STEVENS POINT  CLOUDY    51  47  86 SW7       30.10F
WAUPACA        LGT RAIN  54  48  82 CALM      30.12F
WAUTOMA        NOT AVBL
WISC RAPIDS    CLOUDY    53  50  89 S7        30.11S
6HR MIN TEMP:  50; 6HR MAX TEMP:  57; 6HR PCP:  0.28;

CAMP DOUGLAS   NOT AVBL
$$

WIZ011>013-019>022-031-037>040-048>050-201900-
NORTHEAST WISCONSIN

CITY           SKY/WX    TMP DP  RH WIND       PRES   REMARKS
ANTIGO         CLOUDY    59  51  75 SW16G22   30.08S
STURGEON BAY   CLOUDY    39  36  87 S7        30.12F WCI  34
6HR MIN TEMP:  37; 6HR MAX TEMP:  39; 6HR PCP:  0.12;

GREEN BAY      LGT RAIN  52  46  80 S7        30.11F
6HR MIN TEMP:  48; 6HR MAX TEMP:  52; 6HR PCP:  0.03;

MANITOWOC      NOT AVBL
APPLETON       DRIZZLE   52  45  76 VRB5      30.12F
CLINTONVILLE   DRIZZLE   52  48  87 S7        30.10F
OSHKOSH        CLOUDY    61  42  49 VRB3      30.11F
6HR MIN TEMP:  50; 6HR MAX TEMP:  61;

$$

WIZ032>034-041-042-053>061-201900-
SOUTHWEST WISCONSIN

CITY           SKY/WX    TMP DP  RH WIND       PRES   REMARKS
LA CROSSE      LGT RAIN  54  50  86 S10       30.07F FOG
6HR MIN TEMP:  53; 6HR MAX TEMP:  60; 6HR PCP:  0.23;

SPARTA         LGT RAIN  56  51  83 S6        30.10S
VIROQUA        CLOUDY    55  51  88 S8        30.08F
BOSCOBEL       LGT RAIN  67  47  48 W5        30.09F
6HR MIN TEMP:  61; 6HR MAX TEMP:  68; 6HR PCP: TRACE;

PRAIRIE DU CHI CLOUDY    63  49  59 SW3       30.09F
PLATTEVILLE    FAIR      74  44  33 SW9G16    30.09F
$$

WIZ056-057-062-063-064-067-068-201900-
SOUTH CENTRAL WISCONSIN

CITY           SKY/WX    TMP DP  RH WIND       PRES   REMARKS
BARABOO/DELLS  CLOUDY    63  42  46 SW6       30.11F
LONE ROCK      NOT AVBL
WATERTOWN      MOSUNNY   71  43  36 SW13G18   30.11F
MADISON        CLOUDY    70  41  34 SW7       30.11F
6HR MIN TEMP:  52; 6HR MAX TEMP:  70; 6HR PCP: TRACE;

MIDDLETON      CLOUDY    71  38  30 SW5       30.11F
MONROE         PTSUNNY   72  42  34 SW16      30.12F
JANESVILLE     PTSUNNY   77  37  24 S14G20    30.11F
$$

WIZ051-052-058>065-066-070>072-201900-
SOUTHEAST WISCONSIN

CITY           SKY/WX    TMP DP  RH WIND       PRES   REMARKS
MILWAUKEE      MOSUNNY   73  39  29 S14G21    30.13F
6HR MIN TEMP:  48; 6HR MAX TEMP:  73;

WAUKESHA       MOSUNNY   72  39  30 SW12      30.13F
MILWAUKEE/TIMM SUNNY     72  36  26 S12       30.13F
RACINE         SUNNY     62  37  39 S13       30.16F
6HR MIN TEMP:  44; 6HR MAX TEMP:  62;

BURLINGTON     SUNNY     72  39  30 SW12      30.14F
KENOSHA        SUNNY     73  41  31 SW10G22   30.14F
6HR MIN TEMP:  48; 6HR MAX TEMP:  74;

FOND DU LAC    PTSUNNY   68  44  42 S10       30.10F
6HR MIN TEMP:  51; 6HR MAX TEMP:  68; 6HR PCP: TRACE;

SHEBOYGAN      PTSUNNY   59  41  51 VRB3      30.12F
6HR MIN TEMP:  43; 6HR MAX TEMP:  59;

WEST BEND      PTSUNNY   70  36  28 SW12G18   30.11F
JUNEAU         PTSUNNY   68  35  29 SW12      30.13F
$$

LSZ147-162-201900-
LAKE SUPERIOR

STATION/POSITION TIME  TEMP    WIND        PRES    WAVE
                       AIR SEA DIR/SP/G            HT/PER
                 (UTC) (F)     (DEG/KT/KT) (MB)    (FT/S)
DEVILS ISLAND    1700   40     250/  8/ 10 1018.2F
PORT WING        1740   42     360/  2/  3 1017.6F
SAXON HARBOR     1700             CALM     1017.6S
$$

LMZ867-665-643>646-201900-
LAKE MICHIGAN

STATION/POSITION TIME  TEMP    WIND        PRES    WAVE
                       AIR SEA DIR/SP/G            HT/PER
                 (UTC) (F)     (DEG/KT/KT) (MB)    (FT/S)
NORTHPORT PIER   1700   38     160/  9/ 13 1020.3F
SISTER BAY       1739   38     140/  9/ 11   N/A
KEWAUNEE LAKESHO 1700   39     180/ 11/ 13 1021.5F
SHEBOYGAN LAKESH 1700   40     160/ 16/ 18 1021.3F
PORT WASHINGTON  1700   46     190/  8/ 11 1021.7F
MILWAUKEE LAKESH 1700   43     150/  3/  8   N/A
KENOSHA   LAKESH 1700   44     170/ 11/ 14   N/A
$$

TC  - TEMPERATURE IN CELSIUS
VSB - VISIBILITY IN STATUTE MILES
WCI - WIND CHILL INDEX
HX  - HEAT INDEX




USA.gov is the U.S. government's official web portal to all federal, state and local government web resources and services.